• In Latvia
  • List of Countries
  • For 7 days
  • Water Temperature
  • Satellite Maps
  • Weather Map
  • Weather Widgets
  • user-avatar
    Login

    Hourly Weather Sevastopolskaya

    Today, 21 October, Sunday

    Time Temperature Precipitation Wind Pressure Humidity
    00:00 +15°C° 0 mm 1 mps 724 mmHg 78%
    01:00 +14°C° 0 mm 1 mps 724 mmHg 78%
    02:00 +14°C° 0 mm 1 mps 724 mmHg 78%
    03:00 +14°C° 0 mm 1 mps 724 mmHg 78%
    04:00 +14°C° 0.1 mm 1 mps 723 mmHg 78%
    05:00 +14°C° 0.1 mm 1 mps 723 mmHg 78%
    06:00 +14°C° 0.1 mm 1 mps 723 mmHg 78%
    07:00 +15°C° 0.2 mm 1 mps 724 mmHg 75%
    08:00 +16°C° 0.2 mm 1 mps 724 mmHg 72%
    09:00 +19°C° 0 mm 1 mps 724 mmHg 66%
    10:00 +20°C° 0.2 mm 1 mps 724 mmHg 63%
    11:00 +21°C° 0.2 mm 1 mps 724 mmHg 60%
    12:00 +22°C° 0.2 mm 1 mps 724 mmHg 57%
    13:00 +22°C° 0.4 mm 1 mps 724 mmHg 58%
    14:00 +22°C° 0.4 mm 1 mps 724 mmHg 59%
    15:00 +22°C° 0.4 mm 1 mps 724 mmHg 59%
    16:00 +21°C° 0.3 mm 1 mps 724 mmHg 66%
    17:00 +19°C° 0.3 mm 1 mps 724 mmHg 73%
    18:00 +16°C° 0.3 mm 1 mps 723 mmHg 80%
    19:00 +16°C° 0.1 mm 1 mps 723 mmHg 81%
    20:00 +16°C° 0.1 mm 1 mps 724 mmHg 83%
    21:00 +15°C° 0.1 mm 1 mps 724 mmHg 84%
    22:00 +15°C° 0 mm 1 mps 724 mmHg 84%
    23:00 +15°C° 0 mm 1 mps 723 mmHg 84%

    Tomorrow, 22 October, Monday

    Time Temperature Precipitation Wind Pressure Humidity
    00:00 +15°C° 0 mm 1 mps 723 mmHg 83%
    01:00 +15°C° 0 mm 1 mps 724 mmHg 83%
    02:00 +15°C° 0 mm 1 mps 724 mmHg 83%
    03:00 +15°C° 0 mm 1 mps 724 mmHg 83%
    04:00 +15°C° 0.1 mm 1 mps 724 mmHg 84%
    05:00 +15°C° 0.1 mm 1 mps 724 mmHg 85%
    06:00 +15°C° 0.1 mm 1 mps 724 mmHg 85%
    07:00 +15°C° 0.2 mm 1 mps 724 mmHg 83%
    08:00 +16°C° 0.2 mm 1 mps 725 mmHg 81%
    09:00 +18°C° 0.2 mm 1 mps 725 mmHg 78%
    10:00 +19°C° 0.2 mm 1 mps 725 mmHg 74%
    11:00 +20°C° 0.2 mm 1 mps 726 mmHg 69%
    12:00 +21°C° 0.2 mm 1 mps 726 mmHg 64%
    13:00 +21°C° 0.3 mm 1 mps 726 mmHg 65%
    14:00 +21°C° 0.3 mm 1 mps 726 mmHg 66%
    15:00 +20°C° 0.3 mm 2 mps 725 mmHg 66%
    16:00 +20°C° 0.7 mm 1 mps 725 mmHg 74%
    17:00 +18°C° 0.7 mm 1 mps 725 mmHg 81%
    18:00 +16°C° 0.7 mm 1 mps 725 mmHg 89%
    19:00 +15°C° 0.4 mm 1 mps 725 mmHg 90%
    20:00 +15°C° 0.4 mm 1 mps 726 mmHg 91%
    21:00 +14°C° 0.4 mm 1 mps 726 mmHg 93%
    22:00 +14°C° 0.1 mm 1 mps 726 mmHg 93%
    23:00 +14°C° 0.1 mm 1 mps 726 mmHg 93%

    Day after tomorrow, 23 October, Tuesday

    Time Temperature Precipitation Wind Pressure Humidity
    00:00 +13°C° 0.1 mm 1 mps 726 mmHg 93%
    01:00 +13°C° 0 mm 1 mps 726 mmHg 93%
    02:00 +13°C° 0 mm 1 mps 725 mmHg 93%
    03:00 +13°C° 0 mm 1 mps 725 mmHg 92%
    04:00 +13°C° 0 mm 1 mps 725 mmHg 92%
    05:00 +13°C° 0 mm 1 mps 725 mmHg 92%
    06:00 +13°C° 0 mm 1 mps 725 mmHg 92%
    07:00 +14°C° 0 mm 1 mps 725 mmHg 88%
    08:00 +15°C° 0 mm 1 mps 725 mmHg 85%
    09:00 +15°C° 0 mm 0 mps 725 mmHg 82%
    10:00 +18°C° 0.1 mm 1 mps 725 mmHg 78%
    11:00 +19°C° 0.1 mm 1 mps 725 mmHg 74%
    12:00 +20°C° 0.1 mm 1 mps 725 mmHg 70%
    13:00 +18°C° 0.4 mm 2 mps 725 mmHg 72%
    14:00 +18°C° 0.4 mm 2 mps 725 mmHg 73%
    15:00 +18°C° 0.4 mm 2 mps 724 mmHg 74%
    16:00 +18°C° 0.3 mm 1 mps 724 mmHg 80%
    17:00 +15°C° 0.3 mm 1 mps 724 mmHg 85%
    18:00 +14°C° 0.3 mm 1 mps 724 mmHg 91%
    19:00 +14°C° 0 mm 1 mps 724 mmHg 92%
    20:00 +13°C° 0 mm 1 mps 723 mmHg 92%
    21:00 +13°C° 0 mm 1 mps 723 mmHg 93%
    22:00 +13°C° 0.2 mm 1 mps 723 mmHg 93%
    23:00 +13°C° 0.2 mm 1 mps 723 mmHg 92%

    24 October, Wednesday

    Time Temperature Precipitation Wind Pressure Humidity
    00:00 +13°C° 0.2 mm 1 mps 722 mmHg 91%
    01:00 +12°C° 0 mm 1 mps 722 mmHg 91%
    02:00 +12°C° 0 mm 1 mps 722 mmHg 91%
    03:00 +12°C° 0 mm 1 mps 721 mmHg 90%
    04:00 +12°C° 0.1 mm 1 mps 721 mmHg 90%
    05:00 +12°C° 0.1 mm 1 mps 721 mmHg 89%
    06:00 +12°C° 0.1 mm 1 mps 720 mmHg 88%
    07:00 +13°C° 0.4 mm 1 mps 720 mmHg 87%
    08:00 +14°C° 0.4 mm 1 mps 719 mmHg 85%
    09:00 +14°C° 0.4 mm 1 mps 719 mmHg 83%
    10:00 +16°C° 0.3 mm 1 mps 719 mmHg 77%
    11:00 +17°C° 0.3 mm 2 mps 718 mmHg 71%
    12:00 +19°C° 0.3 mm 2 mps 718 mmHg 65%
    13:00 +19°C° 0.3 mm 2 mps 717 mmHg 64%
    14:00 +19°C° 0.3 mm 2 mps 716 mmHg 63%
    15:00 +19°C° 0.3 mm 2 mps 716 mmHg 61%
    16:00 +18°C° 0.2 mm 2 mps 715 mmHg 68%
    17:00 +17°C° 0.2 mm 2 mps 714 mmHg 74%
    18:00 +15°C° 0.2 mm 2 mps 714 mmHg 81%
    19:00 +15°C° 0.2 mm 2 mps 714 mmHg 81%
    20:00 +15°C° 0.2 mm 2 mps 713 mmHg 82%
    21:00 +14°C° 0.2 mm 2 mps 713 mmHg 83%
    22:00 +14°C° 0.7 mm 2 mps 713 mmHg 85%
    23:00 +14°C° 0.7 mm 2 mps 712 mmHg 87%

    25 October, Thursday

    Time Temperature Precipitation Wind Pressure Humidity
    00:00 +14°C° 0.7 mm 2 mps 712 mmHg 89%
    01:00 +14°C° 1.1 mm 2 mps 711 mmHg 90%
    02:00 +14°C° 1.1 mm 2 mps 711 mmHg 91%
    03:00 +14°C° 1.1 mm 2 mps 711 mmHg 92%
    04:00 +13°C° 2.9 mm 2 mps 710 mmHg 92%
    05:00 +13°C° 2.9 mm 2 mps 710 mmHg 93%
    06:00 +13°C° 2.9 mm 1 mps 710 mmHg 93%
    07:00 +12°C° 5.2 mm 2 mps 710 mmHg 93%
    08:00 +12°C° 5.2 mm 2 mps 710 mmHg 93%
    09:00 +10°C° 5.2 mm 2 mps 710 mmHg 93%
    10:00 +10°C° 3.7 mm 3 mps 711 mmHg 93%
    11:00 +10°C° 3.7 mm 3 mps 712 mmHg 94%
    12:00 +8°C° 3.7 mm 4 mps 712 mmHg 94%
    13:00 +8°C° 1.7 mm 4 mps 713 mmHg 90%
    14:00 +8°C° 1.7 mm 4 mps 713 mmHg 87%
    15:00 +7°C° 1.7 mm 4 mps 713 mmHg 84%
    16:00 +8°C° 0.8 mm 3 mps 714 mmHg 84%
    17:00 +8°C° 0.8 mm 3 mps 714 mmHg 84%
    18:00 +7°C° 0.8 mm 3 mps 715 mmHg 85%
    19:00 +7°C° 0.6 mm 3 mps 715 mmHg 85%
    20:00 +7°C° 0.6 mm 3 mps 716 mmHg 84%
    21:00 +6°C° 0.6 mm 4 mps 716 mmHg 84%
    22:00 +6°C° 0.2 mm 4 mps 717 mmHg 84%
    23:00 +6°C° 0.2 mm 4 mps 717 mmHg 83%

    26 October, Friday

    Time Temperature Precipitation Wind Pressure Humidity
    00:00 +6°C° 0.2 mm 4 mps 718 mmHg 83%
    01:00 +5°C° 0.2 mm 3 mps 718 mmHg 83%
    02:00 +5°C° 0.2 mm 3 mps 718 mmHg 84%
    03:00 +5°C° 0.2 mm 3 mps 718 mmHg 84%
    04:00 +5°C° 0.4 mm 3 mps 719 mmHg 85%
    05:00 +5°C° 0.4 mm 3 mps 719 mmHg 86%
    06:00 +5°C° 0.4 mm 3 mps 719 mmHg 87%
    07:00 +5°C° 0.2 mm 3 mps 720 mmHg 84%
    08:00 +7°C° 0.2 mm 3 mps 720 mmHg 81%
    09:00 +7°C° 0.2 mm 3 mps 720 mmHg 77%
    10:00 +8°C° 0.1 mm 4 mps 720 mmHg 72%
    11:00 +10°C° 0.1 mm 4 mps 720 mmHg 66%
    12:00 +10°C° 0.1 mm 5 mps 720 mmHg 61%
    13:00 +10°C° 0.3 mm 5 mps 720 mmHg 60%
    14:00 +10°C° 0.3 mm 6 mps 720 mmHg 60%
    15:00 +10°C° 0.3 mm 6 mps 719 mmHg 60%
    16:00 +9°C° 1.6 mm 6 mps 720 mmHg 68%
    17:00 +9°C° 1.6 mm 5 mps 720 mmHg 76%
    18:00 +8°C° 1.6 mm 4 mps 721 mmHg 84%
    19:00 +7°C° 0.9 mm 4 mps 721 mmHg 86%
    20:00 +7°C° 0.9 mm 4 mps 722 mmHg 87%
    21:00 +6°C° 0.9 mm 4 mps 723 mmHg 89%
    22:00 +6°C° 0.2 mm 4 mps 724 mmHg 89%
    23:00 +5°C° 0.2 mm 3 mps 725 mmHg 89%
    Show more